Edinburg, TX

2:30 AM CDT on August 24, 2016 (GMT -0500)
Edinburg

Weather History for KEBG - July, 2013

Change the Weather History Date:

Monday, July 15, 2013

  Actual Average (KMFE) Record (KMFE)
Temperature  
Mean Temperature 88 °F 87 °F  
Max Temperature 98 °F 97 °F 105 °F (2000)
Min Temperature 77 °F 76 °F 68 °F (1975)
Degree Days  
Heating Degree Days 0 0  
Month to date heating degree days 0  
Since 1 June heating degree days 0  
Since 1 July heating degree days 0  
Cooling Degree Days 22 22  
Month to date cooling degree days 320  
Year to date cooling degree days 2203  
Since 1 June cooling degree days 948  
Growing Degree Days 38 (Base 50)    
Moisture  
Dew Point 71 °F    
Average Humidity 61    
Maximum Humidity 86    
Minimum Humidity 30    
Precipitation  
Precipitation 0.13 in 0.07 in 1.80 in (1975)
Month to date precipitation 1.14  
Year to date precipitation 10.50  
Sea Level Pressure  
Sea Level Pressure 29.87 in    
Wind  
Wind Speed 11 mph (SE)    
Max Wind Speed 21 mph    
Max Gust Speed 28 mph    
Visibility 8 miles    
Events      
T = Trace of Precipitation, MM = Missing Value Source: NWS Daily Summary

Daily Weather History Graph

Daily Weather History Graph

Search for Another Location

Airport or City:

Trip Planner

Search our weather history database for the weather conditions in past years. The results will help you decide how hot, cold, wet, or windy it might be!

Date:

Astronomy

Jul. 15, 2013 Rise Set
Actual Time 6:49 AM CDT 8:27 PM CDT
Civil Twilight 6:23 AM CDT 8:53 PM CDT
Nautical Twilight 5:52 AM CDT 9:23 PM CDT
Astronomical Twilight 5:20 AM CDT 9:56 PM CDT
Moon 1:23 PM CDT (7/15) 12:24 AM CDT (7/15)
Length of Visible Light 14h 29m
Length of Day
13h 38m
Waxing Crescent, 45% of the Moon is Illuminated
Jul 15
Waxing Crescent
Jul 15
First Quarter
Jul 22
Full
Jul 29
Last Quarter
Aug 6
New

Hourly Weather History & Observations

Time (CDT) Temp. Heat Index Dew Point Humidity Pressure Visibility Wind Dir Wind Speed Gust Speed Precip Events Conditions
12:15 AM 82.9 °F 89.1 °F 73.4 °F 73% 29.89 in 10.0 mi SE 8.1 mph - N/A   Scattered Clouds
12:35 AM 82.8 °F 88.7 °F 73.4 °F 73% 29.88 in 7.0 mi SE 10.4 mph - N/A   Scattered Clouds
12:55 AM 82.4 °F 88.4 °F 73.6 °F 75% 29.88 in 10.0 mi SSE 10.4 mph - N/A   Clear
1:15 AM 82.4 °F 88.2 °F 73.4 °F 74% 29.88 in 10.0 mi SSE 11.5 mph - N/A   Clear
1:35 AM 82.0 °F 87.7 °F 73.4 °F 75% 29.87 in 5.0 mi SSE 10.4 mph - N/A   Haze
1:55 AM 81.9 °F 87.3 °F 73.4 °F 75% 29.87 in 10.0 mi SSE 10.4 mph - N/A   Clear
2:15 AM 81.7 °F 87.1 °F 73.4 °F 76% 29.87 in 10.0 mi SSE 9.2 mph - N/A   Clear
2:35 AM 81.5 °F 86.7 °F 73.4 °F 76% 29.86 in 10.0 mi SSE 10.4 mph - N/A   Clear
2:55 AM 81.5 °F 86.7 °F 73.4 °F 76% 29.86 in 10.0 mi SSE 8.1 mph - N/A   Clear
3:15 AM 80.8 °F 85.6 °F 73.4 °F 78% 29.85 in 7.0 mi SSE 9.2 mph - N/A   Clear
3:35 AM 80.8 °F 85.6 °F 73.4 °F 78% 29.85 in 10.0 mi SSE 8.1 mph - N/A   Clear
3:55 AM 80.4 °F 85.0 °F 73.4 °F 79% 29.84 in 7.0 mi SSE 8.1 mph - N/A   Clear
4:15 AM 80.1 °F 84.4 °F 73.4 °F 80% 29.84 in 10.0 mi SSE 8.1 mph - N/A   Clear
4:35 AM 79.9 °F - 73.6 °F 81% 29.84 in 7.0 mi SSE 5.8 mph - N/A   Clear
4:55 AM 79.7 °F - 73.6 °F 81% 29.85 in 7.0 mi SSE 5.8 mph - N/A   Scattered Clouds
5:15 AM 79.7 °F - 73.8 °F 82% 29.85 in 7.0 mi SE 5.8 mph - N/A   Scattered Clouds
5:35 AM 78.8 °F - 73.4 °F 83% 29.85 in 10.0 mi SE 4.6 mph - N/A   Clear
5:55 AM 78.3 °F - 73.4 °F 85% 29.85 in 7.0 mi SE 4.6 mph - N/A   Clear
6:15 AM 77.9 °F - 73.4 °F 86% 29.85 in 7.0 mi ESE 5.8 mph - N/A   Clear
6:35 AM 78.1 °F - 73.4 °F 85% 29.85 in 7.0 mi ESE 5.8 mph - N/A   Clear
6:55 AM 77.9 °F - 73.4 °F 86% 29.85 in 7.0 mi ESE 4.6 mph - N/A   Clear
7:35 AM 78.8 °F - 73.8 °F 84% 29.87 in 0.8 mi ESE 3.5 mph - N/A   Haze
7:55 AM 79.2 °F - 73.9 °F 84% 29.87 in 7.0 mi ESE 6.9 mph - 0.13 in   Clear
8:15 AM 80.1 °F 84.6 °F 74.3 °F 82% 29.87 in 7.0 mi SE 9.2 mph - N/A   Clear
8:35 AM 81.1 °F 86.8 °F 74.3 °F 80% 29.87 in 7.0 mi SE 9.2 mph - N/A   Clear
8:55 AM 82.4 °F 89.0 °F 74.5 °F 77% 29.87 in 7.0 mi SE 9.2 mph - N/A   Clear
9:15 AM 83.7 °F 91.0 °F 74.5 °F 74% 29.88 in 7.0 mi SSE 11.5 mph - N/A   Clear
9:35 AM 84.2 °F 91.6 °F 74.3 °F 72% 29.88 in 7.0 mi SSE 9.2 mph 17.3 mph N/A   Clear
9:55 AM 85.1 °F 92.9 °F 74.1 °F 70% 29.89 in 7.0 mi SE 12.7 mph - N/A   Clear
10:15 AM 85.5 °F 92.6 °F 73.2 °F 67% 29.89 in 7.0 mi SSE 13.8 mph - N/A   Clear
10:35 AM 86.5 °F 93.8 °F 72.9 °F 64% 29.89 in 7.0 mi SSE 15.0 mph 19.6 mph N/A   Scattered Clouds
10:55 AM 87.8 °F 94.3 °F 72.0 °F 59% 29.89 in 7.0 mi SE 12.7 mph 23.0 mph N/A   Mostly Cloudy
11:15 AM 90.0 °F 97.4 °F 72.1 °F 56% 29.90 in 7.0 mi SSE 11.5 mph - N/A   Scattered Clouds
11:35 AM 90.9 °F 97.3 °F 71.1 °F 52% 29.89 in 5.0 mi SSE 16.1 mph 20.7 mph N/A   Haze
11:55 AM 92.1 °F 97.2 °F 69.4 °F 47% 29.89 in 7.0 mi SE 16.1 mph 21.9 mph N/A   Scattered Clouds
12:15 PM 93.2 °F 96.7 °F 67.1 °F 42% 29.88 in 7.0 mi SE 15.0 mph 20.7 mph N/A   Scattered Clouds
12:35 PM 94.3 °F 99.3 °F 68.7 °F 43% 29.88 in 7.0 mi SSE 15.0 mph 21.9 mph N/A   Scattered Clouds
12:55 PM 93.7 °F 98.2 °F 68.4 °F 43% 29.88 in 10.0 mi ESE 18.4 mph 21.9 mph N/A   Scattered Clouds
1:15 PM 95.2 °F 99.3 °F 67.1 °F 40% 29.88 in 7.0 mi South 12.7 mph 21.9 mph N/A   Scattered Clouds
1:35 PM 95.2 °F 98.3 °F 66.0 °F 38% 29.87 in 7.0 mi SSE 12.7 mph 23.0 mph N/A   Clear
1:55 PM 95.4 °F 98.1 °F 64.9 °F 37% 29.87 in 5.0 mi SSE 16.1 mph 23.0 mph N/A   Haze
2:35 PM 96.6 °F 98.2 °F 63.0 °F 33% 29.85 in 7.0 mi SSE 11.5 mph 19.6 mph N/A   Scattered Clouds
2:55 PM 97.5 °F 99.2 °F 62.8 °F 32% 29.84 in 7.0 mi SSE 12.7 mph 19.6 mph N/A   Clear
3:15 PM 98.1 °F 99.6 °F 62.4 °F 31% 29.84 in 7.0 mi SE 13.8 mph 23.0 mph N/A   Scattered Clouds
3:35 PM 97.9 °F 98.8 °F 61.3 °F 30% 29.83 in 7.0 mi SE 18.4 mph 25.3 mph N/A   Scattered Clouds
3:55 PM 98.4 °F 100.2 °F 63.3 °F 31% 29.82 in 7.0 mi SE 20.7 mph 25.3 mph N/A   Scattered Clouds
4:15 PM 98.4 °F 100.2 °F 63.1 °F 31% 29.82 in 7.0 mi SE 16.1 mph 24.2 mph N/A   Clear
4:35 PM 98.1 °F 100.1 °F 63.5 °F 32% 29.82 in 10.0 mi SE 12.7 mph 23.0 mph N/A   Scattered Clouds
4:55 PM 95.5 °F 98.4 °F 65.5 °F 37% 29.82 in 7.0 mi SE 18.4 mph 25.3 mph N/A   Scattered Clouds
5:15 PM 94.5 °F 97.0 °F 65.3 °F 38% 29.83 in 7.0 mi ESE 17.3 mph - N/A   Scattered Clouds
5:35 PM 93.9 °F 96.5 °F 65.5 °F 39% 29.83 in 7.0 mi ESE 19.6 mph - N/A   Scattered Clouds
5:55 PM 93.6 °F 95.9 °F 65.3 °F 39% 29.83 in 7.0 mi ESE 18.4 mph - N/A   Clear
6:15 PM 93.2 °F 95.8 °F 65.8 °F 40% 29.83 in 7.0 mi ESE 18.4 mph 24.2 mph N/A   Clear
6:35 PM 92.3 °F 96.5 °F 68.4 °F 45% 29.83 in 10.0 mi ESE 20.7 mph 25.3 mph N/A   Clear
6:55 PM 91.6 °F 95.7 °F 68.0 °F 46% 29.84 in 7.0 mi ESE 17.3 mph 27.6 mph N/A   Clear
7:15 PM 91.4 °F 94.9 °F 67.6 °F 45% 29.85 in 10.0 mi ESE 20.7 mph 26.5 mph N/A   Clear
7:35 PM 90.7 °F 95.0 °F 68.4 °F 48% 29.86 in 10.0 mi ESE 19.6 mph 24.2 mph N/A   Clear
7:55 PM 89.1 °F 93.7 °F 69.4 °F 52% 29.87 in 10.0 mi ESE 18.4 mph - N/A   Clear
8:15 PM 88.3 °F 92.8 °F 69.4 °F 53% 29.88 in 10.0 mi ESE 17.3 mph 25.3 mph N/A   Clear
8:35 PM 87.4 °F 92.7 °F 70.7 °F 57% 29.89 in 10.0 mi ESE 15.0 mph - N/A   Clear
8:55 PM 86.5 °F 91.0 °F 69.8 °F 57% 29.90 in 10.0 mi ESE 13.8 mph - N/A   Clear
9:15 PM 86.0 °F 90.4 °F 69.6 °F 58% 29.90 in 10.0 mi ESE 13.8 mph - N/A   Clear
9:35 PM 85.1 °F 89.4 °F 70.0 °F 60% 29.91 in 10.0 mi ESE 13.8 mph - N/A   Clear
9:55 PM 84.6 °F 89.4 °F 70.9 °F 63% 29.91 in 10.0 mi ESE 16.1 mph - N/A   Clear
10:15 PM 84.2 °F 89.6 °F 71.6 °F 66% 29.92 in 10.0 mi ESE 12.7 mph - N/A   Clear
10:35 PM 83.7 °F 89.4 °F 72.5 °F 69% 29.93 in 7.0 mi ESE 12.7 mph - N/A   Clear
10:55 PM 83.3 °F 89.3 °F 72.9 °F 71% 29.93 in 10.0 mi ESE 11.5 mph - N/A   Clear
11:15 PM 82.9 °F 89.1 °F 73.4 °F 73% 29.94 in 7.0 mi ESE 8.1 mph - N/A   Clear
11:35 PM 82.8 °F 89.0 °F 73.6 °F 74% 29.94 in 7.0 mi ESE 8.1 mph - N/A   Clear
11:55 PM 82.4 °F 88.4 °F 73.8 °F 75% 29.95 in 10.0 mi ESE 8.1 mph - N/A   Clear